START_TIME,STEP,MOV.,H8,t_acc.,H43,t_acc.,M25,t_acc.,H9,t_acc.
1979-03-01 18:00:18.960 ,0,0,0.,12.0,0.,12.0,0.,12.0,0.,12.0
1979-03-01 18:00:30.960 ,0,0,0.,12.0,0.,12.0,0.,12.0,0.,12.0
1979-03-01 18:00:42.960 ,0,0,0.,12.0,0.,12.0,0.,12.0,0.,12.0
1979-03-01 18:00:54.960 ,0,0,0.,12.0,0.,12.0,0.,12.0,0.,12.0
1979-03-01 18:01:06.960 ,1,0,0.,12.0,0.,12.0,0.,12.0,0.,12.0
1979-03-01 18:01:18.960 ,1,0,0.,12.0,0.,12.0,0.,12.0,0.,12.0
1979-03-01 18:01:30.960 ,2,0,0.,12.0,0.,12.0,0.,12.0,0.,12.0
1979-03-01 18:01:42.960 ,2,0,0.,12.0,0.,12.0,0.,12.0,0.,12.0
1979-03-01 18:01:54.960 ,3,0,0.,12.0,0.,12.0,0.,12.0,0.,12.0
1979-03-01 18:02:06.960 ,3,0,0.,12.0,0.,12.0,0.,12.0,0.,12.0
1979-03-01 18:02:18.960 ,4,0,0.,12.0,0.,12.0,0.,12.0,0.,12.0
1979-03-01 18:02:30.960 ,4,0,0.,12.0,0.,12.0,0.,12.0,0.,12.0
1979-03-01 18:02:42.960 ,5,0,0.,12.0,0.,12.0,0.,12.0,0.,12.0
1979-03-01 18:02:54.960 ,5,0,0.,12.0,0.,12.0,0.,12.0,0.,12.0
1979-03-01 18:03:06.960 ,6,0,0.,12.0,0.,12.0,0.,12.0,0.,12.0
1979-03-01 18:03:18.960 ,6,0,0.,12.0,0.,12.0,0.,12.0,0.,12.0
1979-03-01 18:03:30.960 ,7,0,0.,12.0,0.,12.0,0.,12.0,0.,12.0
1979-03-01 18:03:42.960 ,7,0,0.,12.0,0.,12.0,0.,12.0,0.,12.0
1979-03-01 18:03:54.960 ,7,0,0.,12.0,0.,12.0,0.,12.0,0.,12.0
1979-03-01 18:04:06.960 ,7,0,0.,12.0,0.,12.0,0.,12.0,0.,12.0
1979-03-01 18:04:18.960 ,6,0,0.,12.0,0.,12.0,0.,12.0,0.,12.0
1979-03-01 18:04:30.960 ,6,0,0.,12.0,0.,12.0,0.,12.0,0.,12.0
1979-03-01 18:04:42.960 ,5,0,0.,12.0,0.,12.0,0.,12.0,0.,12.0
1979-03-01 18:04:54.960 ,5,0,0.,12.0,0.,12.0,0.,12.0,0.,12.0
1979-03-01 18:05:06.960 ,4,0,0.,12.0,0.,12.0,0.,12.0,0.,12.0
1979-03-01 18:05:18.960 ,4,0,0.,12.0,0.,12.0,0.,12.0,0.,12.0
1979-03-01 18:05:30.960 ,3,0,0.,12.0,0.,12.0,0.,12.0,0.,12.0
1979-03-01 18:05:42.960 ,3,0,0.,12.0,0.,12.0,0.,12.0,0.,12.0
1979-03-01 18:05:54.960 ,2,0,0.,12.0,0.,12.0,0.,12.0,0.,12.0
1979-03-01 18:06:06.960 ,2,0,0.,12.0,0.,12.0,0.,12.0,0.,12.0
1979-03-01 18:06:18.960 ,1,0,0.,12.0,0.,12.0,0.,12.0,0.,12.0
1979-03-01 18:06:30.960 ,1,0,0.,12.0,0.,12.0,0.,12.0,0.,12.0
1979-03-01 18:06:42.960 ,0,0,0.,12.0,0.,12.0,0.,12.0,0.,12.0
1979-03-01 18:06:54.960 ,0,0,0.,12.0,0.,12.0,0.,12.0,0.,12.0
1979-03-01 18:07:06.960 ,0,0,0.,12.0,0.,12.0,0.,12.0,0.,12.0
1979-03-01 18:07:18.960 ,0,0,0.,12.0,0.,12.0,0.,12.0,0.,12.0
1979-03-01 18:07:30.960 ,1,0,0.,12.0,0.,12.0,0.,12.0,0.,12.0
1979-03-01 18:07:42.960 ,1,0,0.,12.0,0.,12.0,0.,12.0,0.,12.0
1979-03-01 18:07:54.960 ,2,0,0.,12.0,0.,12.0,0.,12.0,0.,12.0
1979-03-01 18:08:06.960 ,2,0,0.,12.0,0.,12.0,0.,12.0,0.,12.0
1979-03-01 18:08:18.960 ,3,0,0.,12.0,0.,12.0,0.,12.0,0.,12.0
1979-03-01 18:08:30.960 ,3,0,0.,12.0,0.,12.0,0.,12.0,0.,12.0
1979-03-01 18:08:42.960 ,4,0,0.,12.0,0.,12.0,0.,12.0,0.,12.0
1979-03-01 18:08:54.960 ,4,0,0.,12.0,0.,12.0,0.,12.0,0.,12.0
1979-03-01 18:09:06.960 ,5,0,0.,12.0,0.,12.0,0.,12.0,0.,12.0
1979-03-01 18:09:18.960 ,5,0,0.,12.0,0.,12.0,0.,12.0,0.,12.0
1979-03-01 18:09:30.960 ,6,0,0.,12.0,0.,12.0,0.,12.0,0.,12.0
1979-03-01 18:09:42.960 ,6,0,0.,12.0,0.,12.0,0.,12.0,0.,12.0
1979-03-01 18:09:54.960 ,7,0,0.,12.0,0.,12.0,0.,12.0,0.,12.0
1979-03-01 18:10:06.960 ,7,0,0.,12.0,0.,12.0,0.,12.0,0.,12.0
1979-03-01 18:10:18.960 ,7,0,0.,12.0,0.,12.0,0.,12.0,0.,12.0
1979-03-01 18:10:30.960 ,7,0,0.,12.0,0.,12.0,0.,12.0,0.,12.0
1979-03-01 18:10:42.960 ,6,0,0.,12.0,0.,12.0,0.,12.0,0.,12.0
1979-03-01 18:10:54.960 ,6,0,0.,12.0,0.,12.0,0.,12.0,0.,12.0
1979-03-01 18:11:06.960 ,5,0,0.,12.0,0.,12.0,0.,12.0,0.,12.0
1979-03-01 18:11:18.960 ,5,0,0.,12.0,0.,12.0,0.,12.0,0.,12.0
1979-03-01 18:11:30.960 ,4,0,0.,12.0,0.,12.0,0.,12.0,0.,12.0
1979-03-01 18:11:42.960 ,4,0,0.,12.0,0.,12.0,0.,12.0,0.,12.0
1979-03-01 18:11:54.960 ,3,0,0.,12.0,0.,12.0,0.,12.0,0.,12.0
1979-03-01 18:12:06.960 ,3,0,0.,12.0,0.,12.0,0.,12.0,0.,12.0
1979-03-01 18:12:18.960 ,2,0,0.,12.0,0.,12.0,0.,12.0,0.,12.0
1979-03-01 18:12:30.960 ,2,0,0.,12.0,0.,12.0,0.,12.0,0.,12.0
1979-03-01 18:12:42.960 ,1,0,0.,12.0,0.,12.0,0.,12.0,0.,12.0
1979-03-01 18:12:54.960 ,1,0,0.,12.0,0.,12.0,0.,12.0,0.,12.0
1979-03-01 18:13:06.960 ,0,0,1.,12.0,0.,12.0,0.,12.0,0.,12.0
1979-03-01 18:13:18.960 ,0,0,0.,12.0,0.,12.0,0.,12.0,0.,12.0
1979-03-01 18:13:30.960 ,0,0,0.,12.0,0.,12.0,0.,12.0,0.,12.0
1979-03-01 18:13:42.960 ,0,0,0.,12.0,0.,12.0,0.,12.0,0.,12.0
1979-03-01 18:13:54.960 ,1,0,,0,,0,,0,,0
1979-03-01 18:14:06.960 ,1,0,0.,12.0,0.,12.0,0.,12.0,0.,12.0
1979-03-01 18:14:18.960 ,2,0,0.,12.0,0.,12.0,0.,12.0,0.,12.0
1979-03-01 18:14:30.960 ,2,0,0.,12.0,0.,12.0,0.,12.0,0.,12.0
1979-03-01 18:14:42.960 ,3,0,0.,12.0,0.,12.0,0.,12.0,0.,12.0
1979-03-01 18:14:54.960 ,3,0,0.,12.0,0.,12.0,0.,12.0,0.,12.0
1979-03-01 18:15:06.960 ,4,0,0.,12.0,0.,12.0,0.,12.0,0.,12.0
1979-03-01 18:15:18.960 ,4,0,0.,12.0,0.,12.0,0.,12.0,0.,12.0
1979-03-01 18:15:30.960 ,5,0,0.,12.0,0.,12.0,0.,12.0,0.,12.0
1979-03-01 18:15:42.960 ,5,0,0.,12.0,0.,12.0,0.,12.0,0.,12.0
1979-03-01 18:15:54.960 ,6,0,0.,12.0,0.,12.0,0.,12.0,0.,12.0
1979-03-01 18:16:06.960 ,6,0,0.,12.0,0.,12.0,0.,12.0,0.,12.0
1979-03-01 18:16:18.960 ,7,0,0.,12.0,0.,12.0,0.,12.0,0.,12.0
1979-03-01 18:16:30.960 ,7,0,0.,12.0,0.,12.0,0.,12.0,0.,12.0
1979-03-01 18:16:42.960 ,7,0,0.,12.0,0.,12.0,0.,12.0,0.,12.0
1979-03-01 18:16:54.960 ,7,0,0.,12.0,0.,12.0,0.,12.0,0.,12.0
1979-03-01 18:17:06.960 ,6,0,0.,12.0,0.,12.0,0.,12.0,0.,12.0
1979-03-01 18:17:18.960 ,6,0,0.,12.0,0.,12.0,0.,12.0,0.,12.0
1979-03-01 18:17:30.960 ,5,0,0.,12.0,0.,12.0,0.,12.0,0.,12.0
1979-03-01 18:17:42.960 ,5,0,0.,12.0,0.,12.0,0.,12.0,0.,12.0
1979-03-01 18:17:54.960 ,4,0,0.,12.0,0.,12.0,0.,12.0,0.,12.0
1979-03-01 18:18:06.960 ,4,0,0.,12.0,0.,12.0,0.,12.0,0.,12.0
1979-03-01 18:18:18.960 ,3,0,0.,12.0,0.,12.0,0.,12.0,0.,12.0
1979-03-01 18:18:30.960 ,3,0,0.,12.0,0.,12.0,0.,12.0,0.,12.0
1979-03-01 18:18:42.960 ,2,0,0.,12.0,0.,12.0,0.,12.0,0.,12.0
1979-03-01 18:18:54.960 ,2,0,0.,12.0,0.,12.0,0.,12.0,0.,12.0
1979-03-01 18:19:06.960 ,1,0,0.,12.0,0.,12.0,0.,12.0,0.,12.0
1979-03-01 18:19:18.960 ,1,0,0.,12.0,0.,12.0,0.,12.0,0.,12.0
1979-03-01 18:19:30.960 ,0,0,0.,12.0,0.,12.0,0.,12.0,0.,12.0
1979-03-01 18:19:42.960 ,0,0,0.,12.0,0.,12.0,0.,12.0,0.,12.0
1979-03-01 18:19:54.960 ,0,0,0.,12.0,0.,12.0,0.,12.0,0.,12.0
1979-03-01 18:20:06.960 ,0,0,0.,12.0,0.,12.0,0.,12.0,0.,12.0
1979-03-01 18:20:18.960 ,1,0,0.,12.0,0.,12.0,0.,12.0,0.,12.0
1979-03-01 18:20:30.960 ,1,0,0.,12.0,0.,12.0,0.,12.0,0.,12.0
1979-03-01 18:20:42.960 ,2,0,0.,12.0,0.,12.0,0.,12.0,0.,12.0
1979-03-01 18:20:54.960 ,2,0,0.,12.0,0.,12.0,0.,12.0,0.,12.0
1979-03-01 18:21:06.960 ,3,0,0.,12.0,0.,12.0,0.,12.0,0.,12.0
1979-03-01 18:21:18.960 ,3,0,0.,12.0,0.,12.0,0.,12.0,0.,12.0
1979-03-01 18:21:30.960 ,4,0,0.,12.0,0.,12.0,0.,12.0,0.,12.0
1979-03-01 18:21:42.960 ,4,0,0.,12.0,0.,12.0,0.,12.0,0.,12.0
1979-03-01 18:21:54.960 ,5,0,0.,12.0,0.,12.0,0.,12.0,0.,12.0
1979-03-01 18:22:06.960 ,5,0,0.,12.0,0.,12.0,0.,12.0,0.,12.0
1979-03-01 18:22:18.960 ,6,0,0.,12.0,0.,12.0,0.,12.0,0.,12.0
1979-03-01 18:22:30.960 ,6,0,0.,12.0,0.,12.0,0.,12.0,0.,12.0
1979-03-01 18:22:42.960 ,7,0,0.,12.0,0.,12.0,0.,12.0,0.,12.0
1979-03-01 18:22:54.960 ,7,0,0.,12.0,0.,12.0,0.,12.0,0.,12.0
1979-03-01 18:23:06.960 ,7,0,0.,12.0,0.,12.0,0.,12.0,0.,12.0
1979-03-01 18:23:18.960 ,7,0,0.,12.0,0.,12.0,0.,12.0,0.,12.0
1979-03-01 18:23:30.960 ,6,0,0.,12.0,0.,12.0,0.,12.0,0.,12.0
1979-03-01 18:23:42.960 ,6,0,0.,12.0,0.,12.0,0.,12.0,0.,12.0
1979-03-01 18:23:54.960 ,5,0,0.,12.0,0.,12.0,0.,12.0,0.,12.0
1979-03-01 18:24:06.960 ,5,0,0.,12.0,0.,12.0,0.,12.0,0.,12.0
1979-03-01 18:24:18.960 ,4,0,0.,12.0,0.,12.0,0.,12.0,0.,12.0
1979-03-01 18:24:30.960 ,4,0,0.,12.0,0.,12.0,0.,12.0,0.,12.0
1979-03-01 18:24:42.960 ,3,0,0.,12.0,0.,12.0,0.,12.0,0.,12.0
1979-03-01 18:24:54.960 ,3,0,0.,12.0,0.,12.0,0.,12.0,0.,12.0
1979-03-01 18:25:06.960 ,2,0,0.,12.0,0.,12.0,0.,12.0,0.,12.0
1979-03-01 18:25:18.960 ,2,0,0.,12.0,0.,12.0,0.,12.0,0.,12.0
1979-03-01 18:25:30.960 ,1,0,0.,12.0,0.,12.0,0.,12.0,0.,12.0
1979-03-01 18:25:42.960 ,1,0,0.,12.0,0.,12.0,0.,12.0,0.,12.0
1979-03-01 18:25:54.960 ,0,0,0.,12.0,0.,12.0,0.,12.0,0.,12.0
1979-03-01 18:26:06.960 ,0,0,1.,12.0,0.,12.0,0.,12.0,0.,12.0
1979-03-01 18:26:18.960 ,0,0,0.,12.0,0.,12.0,0.,12.0,0.,12.0
1979-03-01 18:26:30.960 ,0,0,0.,12.0,0.,12.0,0.,12.0,0.,12.0
1979-03-01 18:26:42.960 ,1,0,0.,12.0,0.,12.0,0.,12.0,0.,12.0
1979-03-01 18:26:54.960 ,1,0,0.,12.0,0.,12.0,0.,12.0,0.,12.0
1979-03-01 18:27:06.960 ,2,0,0.,12.0,0.,12.0,0.,12.0,0.,12.0
1979-03-01 18:27:18.960 ,2,0,0.,12.0,0.,12.0,0.,12.0,0.,12.0
1979-03-01 18:27:30.960 ,3,0,0.,12.0,0.,12.0,0.,12.0,0.,12.0
1979-03-01 18:27:42.960 ,3,0,0.,12.0,0.,12.0,0.,12.0,0.,12.0
1979-03-01 18:27:54.960 ,4,0,0.,12.0,0.,12.0,0.,12.0,0.,12.0
1979-03-01 18:28:06.960 ,4,0,0.,12.0,0.,12.0,0.,12.0,0.,12.0
1979-03-01 18:28:18.960 ,5,0,0.,12.0,0.,12.0,0.,12.0,0.,12.0
1979-03-01 18:28:30.960 ,5,0,0.,12.0,0.,12.0,0.,12.0,0.,12.0
1979-03-01 18:28:42.960 ,6,0,0.,12.0,0.,12.0,0.,12.0,0.,12.0
1979-03-01 18:28:54.960 ,6,0,0.,12.0,0.,12.0,0.,12.0,0.,12.0
1979-03-01 18:29:06.960 ,7,0,0.,12.0,0.,12.0,0.,12.0,0.,12.0
1979-03-01 18:29:18.960 ,7,0,0.,12.0,0.,12.0,0.,12.0,0.,12.0
1979-03-01 18:29:30.960 ,7,0,0.,12.0,0.,12.0,0.,12.0,0.,12.0
1979-03-01 18:29:42.960 ,7,0,0.,12.0,0.,12.0,0.,12.0,0.,12.0
1979-03-01 18:29:54.960 ,6,0,0.,12.0,0.,12.0,0.,12.0,0.,12.0
1979-03-01 18:30:06.960 ,6,0,0.,12.0,0.,12.0,0.,12.0,0.,12.0
1979-03-01 18:30:18.960 ,5,0,0.,12.0,0.,12.0,0.,12.0,0.,12.0
1979-03-01 18:30:30.960 ,5,0,0.,12.0,0.,12.0,0.,12.0,0.,12.0
1979-03-01 18:30:42.960 ,4,0,0.,12.0,0.,12.0,0.,12.0,0.,12.0
1979-03-01 18:30:54.960 ,4,0,0.,12.0,0.,12.0,0.,12.0,0.,12.0
1979-03-01 18:31:06.960 ,3,0,0.,12.0,0.,12.0,0.,12.0,0.,12.0
1979-03-01 18:31:18.960 ,3,0,0.,12.0,0.,12.0,0.,12.0,0.,12.0
1979-03-01 18:31:30.960 ,2,0,0.,12.0,0.,12.0,0.,12.0,0.,12.0
1979-03-01 18:31:42.960 ,2,0,0.,12.0,0.,12.0,0.,12.0,0.,12.0
1979-03-01 18:31:54.960 ,1,0,0.,12.0,0.,12.0,0.,12.0,0.,12.0
1979-03-01 18:32:06.960 ,1,0,0.,12.0,0.,12.0,0.,12.0,0.,12.0
1979-03-01 18:32:18.960 ,0,0,0.,12.0,0.,12.0,0.,12.0,0.,12.0
1979-03-01 18:32:30.960 ,0,0,0.,12.0,0.,12.0,0.,12.0,0.,12.0
1979-03-01 18:32:42.960 ,0,0,0.,12.0,0.,12.0,0.,12.0,0.,12.0
1979-03-01 18:32:54.960 ,0,0,0.,12.0,0.,12.0,0.,12.0,0.,12.0
1979-03-01 18:33:06.960 ,1,0,0.,12.0,0.,12.0,0.,12.0,0.,12.0
1979-03-01 18:33:18.960 ,1,0,0.,12.0,0.,12.0,0.,12.0,0.,12.0
1979-03-01 18:33:30.960 ,2,0,0.,12.0,0.,12.0,0.,12.0,0.,12.0
1979-03-01 18:33:42.960 ,2,0,0.,12.0,0.,12.0,0.,12.0,0.,12.0
1979-03-01 18:33:54.960 ,3,0,0.,12.0,0.,12.0,0.,12.0,0.,12.0
1979-03-01 18:34:06.960 ,3,0,0.,12.0,0.,12.0,0.,12.0,0.,12.0
1979-03-01 18:34:18.960 ,4,0,0.,12.0,0.,12.0,0.,12.0,0.,12.0
1979-03-01 18:34:30.960 ,4,0,0.,12.0,0.,12.0,0.,12.0,0.,12.0
1979-03-01 18:34:42.960 ,5,0,0.,12.0,0.,12.0,0.,12.0,0.,12.0
1979-03-01 18:34:54.960 ,5,0,0.,12.0,0.,12.0,0.,12.0,0.,12.0
1979-03-01 18:35:06.960 ,6,0,0.,12.0,0.,12.0,0.,12.0,0.,12.0
1979-03-01 18:35:18.960 ,6,0,0.,12.0,0.,12.0,0.,12.0,0.,12.0
1979-03-01 18:35:30.960 ,7,0,0.,12.0,0.,12.0,0.,12.0,0.,12.0
1979-03-01 18:35:42.960 ,7,0,0.,12.0,0.,12.0,0.,12.0,0.,12.0
1979-03-01 18:35:54.960 ,7,0,0.,12.0,0.,12.0,0.,12.0,0.,12.0
1979-03-01 18:36:06.960 ,7,0,0.,12.0,0.,12.0,0.,12.0,0.,12.0
1979-03-01 18:36:18.960 ,6,0,0.,12.0,0.,12.0,0.,12.0,0.,12.0
1979-03-01 18:36:30.960 ,6,0,0.,12.0,0.,12.0,0.,12.0,0.,12.0
1979-03-01 18:36:42.960 ,5,0,0.,12.0,0.,12.0,0.,12.0,0.,12.0
1979-03-01 18:36:54.960 ,5,0,0.,12.0,0.,12.0,0.,12.0,0.,12.0
1979-03-01 18:37:06.960 ,4,0,0.,12.0,0.,12.0,0.,12.0,0.,12.0
1979-03-01 18:37:18.960 ,4,0,0.,12.0,0.,12.0,0.,12.0,0.,12.0
1979-03-01 18:37:30.960 ,3,0,0.,12.0,0.,12.0,0.,12.0,0.,12.0
1979-03-01 18:37:42.960 ,3,0,0.,12.0,0.,12.0,0.,12.0,0.,12.0
1979-03-01 18:37:54.960 ,2,0,0.,12.0,0.,12.0,0.,12.0,0.,12.0
1979-03-01 18:38:06.960 ,2,0,0.,12.0,0.,12.0,0.,12.0,0.,12.0
1979-03-01 18:38:18.960 ,1,0,0.,12.0,0.,12.0,0.,12.0,0.,12.0
1979-03-01 18:38:30.960 ,1,0,0.,12.0,0.,12.0,0.,12.0,0.,12.0
1979-03-01 18:38:42.960 ,0,0,0.,12.0,0.,12.0,0.,12.0,0.,12.0
1979-03-01 18:38:54.960 ,0,0,0.,12.0,0.,12.0,0.,12.0,0.,12.0
1979-03-01 18:39:06.960 ,0,0,0.,12.0,0.,12.0,0.,12.0,0.,12.0
1979-03-01 18:39:18.960 ,0,0,0.,12.0,0.,12.0,0.,12.0,0.,12.0
1979-03-01 18:39:30.960 ,1,0,0.,12.0,0.,12.0,0.,12.0,0.,12.0
1979-03-01 18:39:42.960 ,1,0,0.,12.0,0.,12.0,0.,12.0,0.,12.0
1979-03-01 18:39:54.960 ,2,0,0.,12.0,0.,12.0,0.,12.0,0.,12.0
1979-03-01 18:40:06.960 ,2,0,0.,12.0,0.,12.0,0.,12.0,0.,12.0
1979-03-01 18:40:18.960 ,3,0,0.,12.0,0.,12.0,0.,12.0,0.,12.0
1979-03-01 18:40:30.960 ,3,0,0.,12.0,0.,12.0,0.,12.0,0.,12.0
1979-03-01 18:40:42.960 ,4,0,0.,12.0,0.,12.0,0.,12.0,0.,12.0
1979-03-01 18:40:54.960 ,4,0,0.,12.0,0.,12.0,0.,12.0,0.,12.0
1979-03-01 18:41:06.960 ,5,0,0.,12.0,0.,12.0,0.,12.0,0.,12.0
1979-03-01 18:41:18.960 ,5,0,0.,12.0,0.,12.0,0.,12.0,0.,12.0
1979-03-01 18:41:30.960 ,6,0,0.,12.0,0.,12.0,0.,12.0,0.,12.0
1979-03-01 18:41:42.960 ,6,0,0.,12.0,0.,12.0,0.,12.0,0.,12.0
1979-03-01 18:41:54.960 ,7,0,0.,12.0,0.,12.0,0.,12.0,0.,12.0
1979-03-01 18:42:06.960 ,7,0,0.,12.0,0.,12.0,0.,12.0,0.,12.0
1979-03-01 18:42:18.960 ,7,0,0.,12.0,0.,12.0,0.,12.0,0.,12.0
1979-03-01 18:42:30.960 ,7,0,0.,12.0,0.,12.0,0.,12.0,0.,12.0
1979-03-01 18:42:42.960 ,6,0,0.,12.0,0.,12.0,0.,12.0,0.,12.0
1979-03-01 18:42:54.960 ,6,0,0.,12.0,0.,12.0,0.,12.0,0.,12.0
1979-03-01 18:43:06.960 ,5,0,0.,12.0,0.,12.0,0.,12.0,0.,12.0
1979-03-01 18:43:18.960 ,5,0,0.,12.0,0.,12.0,0.,12.0,0.,12.0
1979-03-01 18:43:30.960 ,4,0,0.,12.0,0.,12.0,0.,12.0,0.,12.0
1979-03-01 18:43:42.960 ,4,0,0.,12.0,0.,12.0,0.,12.0,0.,12.0
1979-03-01 18:43:54.960 ,3,0,0.,12.0,0.,12.0,0.,12.0,0.,12.0
1979-03-01 18:44:06.960 ,3,0,0.,12.0,0.,12.0,0.,12.0,0.,12.0
1979-03-01 18:44:18.960 ,2,0,0.,12.0,0.,12.0,0.,12.0,0.,12.0
1979-03-01 18:44:30.960 ,2,0,0.,12.0,0.,12.0,0.,12.0,0.,12.0
1979-03-01 18:44:42.960 ,1,0,0.,12.0,0.,12.0,0.,12.0,0.,12.0
1979-03-01 18:44:54.960 ,1,0,0.,12.0,0.,12.0,0.,12.0,0.,12.0
1979-03-01 18:45:06.960 ,0,0,0.,12.0,0.,12.0,0.,12.0,0.,12.0
1979-03-01 18:45:18.960 ,0,0,0.,12.0,0.,12.0,0.,12.0,0.,12.0
1979-03-01 18:45:30.960 ,0,0,0.,12.0,0.,12.0,0.,12.0,0.,12.0
1979-03-01 18:45:42.960 ,0,0,0.,12.0,0.,12.0,0.,12.0,0.,12.0
1979-03-01 18:45:54.960 ,1,0,0.,12.0,0.,12.0,0.,12.0,0.,12.0
1979-03-01 18:46:06.960 ,1,0,0.,12.0,0.,12.0,0.,12.0,0.,12.0
1979-03-01 18:46:18.960 ,2,0,0.,12.0,0.,12.0,0.,12.0,0.,12.0
1979-03-01 18:46:30.960 ,2,0,1.,12.0,0.,12.0,0.,12.0,0.,12.0
1979-03-01 18:46:42.960 ,3,0,0.,12.0,0.,12.0,0.,12.0,0.,12.0
1979-03-01 18:46:54.960 ,3,0,0.,12.0,0.,12.0,0.,12.0,0.,12.0
1979-03-01 18:47:06.960 ,4,0,0.,12.0,0.,12.0,0.,12.0,0.,12.0
1979-03-01 18:47:18.960 ,4,0,0.,12.0,0.,12.0,0.,12.0,0.,12.0
1979-03-01 18:47:30.960 ,5,0,0.,12.0,0.,12.0,0.,12.0,0.,12.0
1979-03-01 18:47:42.960 ,5,0,0.,12.0,0.,12.0,0.,12.0,0.,12.0
1979-03-01 18:47:54.960 ,6,0,0.,12.0,0.,12.0,0.,12.0,0.,12.0
1979-03-01 18:48:06.960 ,6,0,0.,12.0,0.,12.0,0.,12.0,0.,12.0
1979-03-01 18:48:18.960 ,0,0,0.,12.0,0.,12.0,0.,12.0,0.,12.0
1979-03-01 18:48:30.960 ,0,0,0.,12.0,0.,12.0,0.,12.0,0.,12.0
1979-03-01 18:48:42.960 ,7,0,0.,12.0,0.,12.0,0.,12.0,0.,12.0
1979-03-01 18:48:54.960 ,7,0,0.,12.0,0.,12.0,0.,12.0,0.,12.0
1979-03-01 18:49:06.960 ,6,0,0.,12.0,0.,12.0,0.,12.0,0.,12.0
1979-03-01 18:49:18.960 ,6,0,0.,12.0,0.,12.0,0.,12.0,0.,12.0
1979-03-01 18:49:30.960 ,5,0,0.,12.0,0.,12.0,0.,12.0,0.,12.0
1979-03-01 18:49:42.960 ,5,0,0.,12.0,0.,12.0,0.,12.0,0.,12.0
1979-03-01 18:49:54.960 ,4,0,0.,12.0,0.,12.0,0.,12.0,0.,12.0
1979-03-01 18:50:06.960 ,4,0,0.,12.0,0.,12.0,0.,12.0,0.,12.0
1979-03-01 18:50:18.960 ,3,0,0.,12.0,0.,12.0,0.,12.0,0.,12.0
1979-03-01 18:50:30.960 ,3,0,0.,12.0,0.,12.0,0.,12.0,0.,12.0
1979-03-01 18:50:42.960 ,2,0,0.,12.0,0.,12.0,0.,12.0,0.,12.0
1979-03-01 18:50:54.960 ,2,0,0.,12.0,0.,12.0,0.,12.0,0.,12.0
1979-03-01 18:51:06.960 ,1,0,0.,12.0,0.,12.0,0.,12.0,0.,12.0
1979-03-01 18:51:18.960 ,1,0,1.,12.0,0.,12.0,0.,12.0,0.,12.0
1979-03-01 18:51:30.960 ,0,0,0.,12.0,0.,12.0,0.,12.0,0.,12.0
1979-03-01 18:51:42.960 ,0,0,0.,12.0,0.,12.0,0.,12.0,0.,12.0
1979-03-01 18:51:54.960 ,0,0,0.,12.0,0.,12.0,0.,12.0,0.,12.0
1979-03-01 18:52:06.960 ,0,0,0.,12.0,0.,12.0,0.,12.0,0.,12.0
1979-03-01 18:52:18.960 ,1,0,0.,12.0,0.,12.0,0.,12.0,0.,12.0
1979-03-01 18:52:30.960 ,1,0,0.,12.0,0.,12.0,0.,12.0,0.,12.0
1979-03-01 18:52:42.960 ,2,0,1.,12.0,0.,12.0,0.,12.0,0.,12.0
1979-03-01 18:52:54.960 ,2,0,1.,12.0,0.,12.0,0.,12.0,0.,12.0
1979-03-01 18:53:06.960 ,3,0,0.,12.0,0.,12.0,0.,12.0,0.,12.0
1979-03-01 18:53:18.960 ,3,0,0.,12.0,0.,12.0,0.,12.0,0.,12.0
1979-03-01 18:53:30.960 ,4,0,0.,12.0,0.,12.0,0.,12.0,0.,12.0
1979-03-01 18:53:42.960 ,4,0,0.,12.0,0.,12.0,0.,12.0,0.,12.0
1979-03-01 18:53:54.960 ,5,0,0.,12.0,0.,12.0,0.,12.0,0.,12.0
1979-03-01 18:54:06.960 ,5,0,0.,12.0,0.,12.0,0.,12.0,0.,12.0
1979-03-01 18:54:18.960 ,6,0,0.,12.0,0.,12.0,0.,12.0,0.,12.0
1979-03-01 18:54:30.960 ,6,0,0.,12.0,0.,12.0,0.,12.0,0.,12.0
1979-03-01 18:54:42.960 ,7,0,0.,12.0,0.,12.0,0.,12.0,0.,12.0
1979-03-01 18:54:54.960 ,7,0,0.,12.0,0.,12.0,0.,12.0,0.,12.0
1979-03-01 18:55:06.960 ,7,0,0.,12.0,0.,12.0,0.,12.0,0.,12.0
1979-03-01 18:55:18.960 ,7,0,0.,12.0,0.,12.0,0.,12.0,0.,12.0
1979-03-01 18:55:30.960 ,6,0,0.,12.0,0.,12.0,0.,12.0,0.,12.0
1979-03-01 18:55:42.960 ,6,0,0.,12.0,0.,12.0,0.,12.0,0.,12.0
1979-03-01 18:55:54.960 ,5,0,0.,12.0,0.,12.0,0.,12.0,0.,12.0
1979-03-01 18:56:06.960 ,5,0,0.,12.0,0.,12.0,0.,12.0,0.,12.0
1979-03-01 18:56:18.960 ,4,0,0.,12.0,0.,12.0,0.,12.0,0.,12.0
1979-03-01 18:56:30.960 ,4,0,0.,12.0,0.,12.0,0.,12.0,0.,12.0
1979-03-01 18:56:42.960 ,3,0,0.,12.0,0.,12.0,0.,12.0,0.,12.0
1979-03-01 18:56:54.960 ,3,0,0.,12.0,0.,12.0,0.,12.0,0.,12.0
1979-03-01 18:57:06.960 ,2,0,0.,12.0,0.,12.0,0.,12.0,0.,12.0
1979-03-01 18:57:18.960 ,2,0,0.,12.0,0.,12.0,0.,12.0,0.,12.0
1979-03-01 18:57:30.960 ,1,0,0.,12.0,0.,12.0,0.,12.0,0.,12.0
1979-03-01 18:57:42.960 ,1,0,0.,12.0,0.,12.0,0.,12.0,0.,12.0
1979-03-01 18:57:54.960 ,0,0,0.,12.0,0.,12.0,0.,12.0,0.,12.0
1979-03-01 18:58:06.960 ,0,0,0.,12.0,0.,12.0,0.,12.0,0.,12.0
1979-03-01 18:58:18.960 ,0,0,0.,12.0,0.,12.0,0.,12.0,0.,12.0
1979-03-01 18:58:30.960 ,0,0,0.,12.0,0.,12.0,0.,12.0,0.,12.0
1979-03-01 18:58:42.960 ,1,0,0.,12.0,0.,12.0,0.,12.0,0.,12.0
1979-03-01 18:58:54.960 ,1,0,0.,12.0,0.,12.0,0.,12.0,0.,12.0
1979-03-01 18:59:06.960 ,2,0,0.,12.0,0.,12.0,0.,12.0,0.,12.0
1979-03-01 18:59:18.960 ,2,0,0.,12.0,0.,12.0,0.,12.0,0.,12.0
1979-03-01 18:59:30.960 ,3,0,0.,12.0,0.,12.0,0.,12.0,0.,12.0
1979-03-01 18:59:42.960 ,3,0,0.,12.0,0.,12.0,0.,12.0,0.,12.0
1979-03-01 18:59:54.960 ,4,0,0.,12.0,0.,12.0,0.,12.0,0.,12.0
1979-03-01 19:00:06.960 ,4,0,0.,12.0,0.,12.0,0.,12.0,0.,12.0
1979-03-01 19:00:18.960 ,5,0,0.,12.0,0.,12.0,0.,12.0,0.,12.0
1979-03-01 19:00:30.960 ,5,0,0.,12.0,0.,12.0,0.,12.0,0.,12.0
1979-03-01 19:00:42.960 ,6,0,0.,12.0,0.,12.0,0.,12.0,0.,12.0
1979-03-01 19:00:54.960 ,6,0,0.,12.0,0.,12.0,0.,12.0,0.,12.0
1979-03-01 19:01:06.960 ,7,0,0.,12.0,0.,12.0,0.,12.0,0.,12.0
1979-03-01 19:01:18.960 ,7,0,0.,12.0,0.,12.0,0.,12.0,0.,12.0
1979-03-01 19:01:30.960 ,7,0,0.,12.0,0.,12.0,0.,12.0,0.,12.0
1979-03-01 19:01:42.960 ,7,0,0.,12.0,0.,12.0,0.,12.0,0.,12.0
1979-03-01 19:01:54.960 ,6,0,0.,12.0,0.,12.0,0.,12.0,0.,12.0
1979-03-01 19:02:06.960 ,6,0,0.,12.0,0.,12.0,0.,12.0,0.,12.0
1979-03-01 19:02:18.960 ,5,0,0.,12.0,0.,12.0,0.,12.0,0.,12.0
1979-03-01 19:02:30.960 ,5,0,0.,12.0,0.,12.0,0.,12.0,0.,12.0
1979-03-01 19:02:42.960 ,4,0,0.,12.0,0.,12.0,0.,12.0,0.,12.0
1979-03-01 19:02:54.960 ,4,0,0.,12.0,0.,12.0,0.,12.0,0.,12.0
1979-03-01 19:03:06.960 ,3,0,0.,12.0,0.,12.0,0.,12.0,0.,12.0
1979-03-01 19:03:18.960 ,3,0,0.,12.0,0.,12.0,0.,12.0,0.,12.0
1979-03-01 19:03:30.960 ,2,0,0.,12.0,0.,12.0,0.,12.0,0.,12.0
1979-03-01 19:03:42.960 ,2,0,0.,12.0,0.,12.0,0.,12.0,0.,12.0
1979-03-01 19:03:54.960 ,1,0,0.,12.0,0.,12.0,0.,12.0,0.,12.0
1979-03-01 19:04:06.960 ,1,0,0.,12.0,0.,12.0,0.,12.0,0.,12.0
1979-03-01 19:04:18.960 ,0,0,0.,12.0,0.,12.0,0.,12.0,0.,12.0
1979-03-01 19:04:30.960 ,0,0,0.,12.0,0.,12.0,0.,12.0,0.,12.0
1979-03-01 19:04:42.960 ,0,0,0.,12.0,0.,12.0,0.,12.0,0.,12.0
1979-03-01 19:04:54.960 ,0,0,0.,12.0,0.,12.0,0.,12.0,0.,12.0
1979-03-01 19:05:06.960 ,1,0,0.,12.0,0.,12.0,0.,12.0,0.,12.0
1979-03-01 19:05:18.960 ,1,0,0.,12.0,0.,12.0,0.,12.0,0.,12.0
1979-03-01 19:05:30.960 ,2,0,0.,12.0,0.,12.0,0.,12.0,0.,12.0
1979-03-01 19:05:42.960 ,2,0,0.,12.0,0.,12.0,0.,12.0,0.,12.0
1979-03-01 19:05:54.960 ,3,0,0.,12.0,0.,12.0,0.,12.0,0.,12.0
1979-03-01 19:06:06.960 ,3,0,0.,12.0,0.,12.0,0.,12.0,0.,12.0
1979-03-01 19:06:18.960 ,4,0,0.,12.0,0.,12.0,0.,12.0,0.,12.0
1979-03-01 19:06:30.960 ,4,0,0.,12.0,0.,12.0,0.,12.0,0.,12.0
1979-03-01 19:06:42.960 ,5,0,0.,12.0,0.,12.0,0.,12.0,0.,12.0
1979-03-01 19:06:54.960 ,5,0,0.,12.0,0.,12.0,0.,12.0,0.,12.0
1979-03-01 19:07:06.960 ,6,0,0.,12.0,0.,12.0,0.,12.0,0.,12.0
1979-03-01 19:07:18.960 ,6,0,0.,12.0,0.,12.0,0.,12.0,0.,12.0
1979-03-01 19:07:30.960 ,7,0,0.,12.0,0.,12.0,0.,12.0,0.,12.0
1979-03-01 19:07:42.960 ,7,0,0.,12.0,0.,12.0,0.,12.0,0.,12.0
1979-03-01 19:07:54.960 ,7,0,0.,12.0,0.,12.0,0.,12.0,0.,12.0
1979-03-01 19:08:06.960 ,7,0,0.,12.0,0.,12.0,0.,12.0,0.,12.0
1979-03-01 19:08:18.960 ,6,0,0.,12.0,0.,12.0,0.,12.0,0.,12.0
1979-03-01 19:08:30.960 ,6,0,0.,12.0,0.,12.0,0.,12.0,0.,12.0
1979-03-01 19:08:42.960 ,5,0,0.,12.0,0.,12.0,0.,12.0,0.,12.0
1979-03-01 19:08:54.960 ,5,0,0.,12.0,0.,12.0,0.,12.0,0.,12.0
1979-03-01 19:09:06.960 ,4,0,0.,12.0,0.,12.0,0.,12.0,0.,12.0
1979-03-01 19:09:18.960 ,4,0,0.,12.0,0.,12.0,0.,12.0,0.,12.0
1979-03-01 19:09:30.960 ,3,0,0.,12.0,0.,12.0,0.,12.0,0.,12.0
1979-03-01 19:09:42.960 ,3,0,1.,12.0,0.,12.0,0.,12.0,0.,12.0
1979-03-01 19:09:54.960 ,2,0,0.,12.0,0.,12.0,0.,12.0,0.,12.0
1979-03-01 19:10:06.960 ,2,0,0.,12.0,0.,12.0,0.,12.0,0.,12.0
1979-03-01 19:10:18.960 ,1,0,0.,12.0,0.,12.0,0.,12.0,0.,12.0
1979-03-01 19:10:30.960 ,1,0,0.,12.0,0.,12.0,0.,12.0,0.,12.0
1979-03-01 19:10:42.960 ,0,0,0.,12.0,0.,12.0,0.,12.0,0.,12.0
1979-03-01 19:10:54.960 ,0,0,0.,12.0,0.,12.0,0.,12.0,0.,12.0
1979-03-01 19:11:06.960 ,0,0,0.,12.0,0.,12.0,0.,12.0,0.,12.0
1979-03-01 19:11:18.960 ,0,0,0.,12.0,0.,12.0,0.,12.0,0.,12.0
1979-03-01 19:11:30.960 ,1,0,0.,12.0,0.,12.0,0.,12.0,0.,12.0
1979-03-01 19:11:42.960 ,1,0,0.,12.0,0.,12.0,0.,12.0,0.,12.0
1979-03-01 19:11:54.960 ,2,0,0.,12.0,0.,12.0,0.,12.0,0.,12.0
1979-03-01 19:12:06.960 ,2,0,0.,12.0,0.,12.0,0.,12.0,0.,12.0
1979-03-01 19:12:18.960 ,3,0,0.,12.0,0.,12.0,0.,12.0,0.,12.0
1979-03-01 19:12:30.960 ,3,0,0.,12.0,0.,12.0,0.,12.0,0.,12.0
1979-03-01 19:12:42.960 ,4,0,0.,12.0,0.,12.0,0.,12.0,0.,12.0
1979-03-01 19:12:54.960 ,4,0,0.,12.0,0.,12.0,0.,12.0,0.,12.0
1979-03-01 19:13:06.960 ,5,0,0.,12.0,0.,12.0,0.,12.0,0.,12.0
1979-03-01 19:13:18.960 ,5,0,0.,12.0,0.,12.0,0.,12.0,0.,12.0
1979-03-01 19:13:30.960 ,6,0,0.,12.0,0.,12.0,0.,12.0,0.,12.0
1979-03-01 19:13:42.960 ,6,0,0.,12.0,0.,12.0,0.,12.0,0.,12.0
1979-03-01 19:13:54.960 ,7,0,0.,12.0,0.,12.0,0.,12.0,0.,12.0
1979-03-01 19:14:06.960 ,7,0,0.,12.0,0.,12.0,0.,12.0,0.,12.0
1979-03-01 19:14:18.960 ,7,0,0.,12.0,0.,12.0,0.,12.0,0.,12.0
1979-03-01 19:14:30.960 ,7,0,0.,12.0,0.,12.0,0.,12.0,0.,12.0
1979-03-01 19:14:42.960 ,6,0,0.,12.0,0.,12.0,0.,12.0,0.,12.0
1979-03-01 19:14:54.960 ,6,0,0.,12.0,0.,12.0,0.,12.0,0.,12.0
1979-03-01 19:15:06.960 ,5,0,0.,12.0,0.,12.0,0.,12.0,0.,12.0
1979-03-01 19:15:18.960 ,5,0,0.,12.0,0.,12.0,0.,12.0,0.,12.0
1979-03-01 19:15:30.960 ,4,0,0.,12.0,0.,12.0,0.,12.0,0.,12.0
1979-03-01 19:15:42.960 ,4,0,0.,12.0,0.,12.0,0.,12.0,0.,12.0
1979-03-01 19:15:54.960 ,3,0,0.,12.0,0.,12.0,0.,12.0,0.,12.0
1979-03-01 19:16:06.960 ,3,0,0.,12.0,0.,12.0,0.,12.0,0.,12.0
1979-03-01 19:16:18.960 ,2,0,0.,12.0,0.,12.0,0.,12.0,0.,12.0
1979-03-01 19:16:30.960 ,2,0,0.,12.0,0.,12.0,0.,12.0,0.,12.0
1979-03-01 19:16:42.960 ,1,0,1.,12.0,0.,12.0,0.,12.0,0.,12.0
1979-03-01 19:16:54.960 ,1,0,0.,12.0,0.,12.0,0.,12.0,0.,12.0
1979-03-01 19:17:06.960 ,0,0,0.,12.0,0.,12.0,0.,12.0,0.,12.0
1979-03-01 19:17:18.960 ,0,0,0.,12.0,0.,12.0,0.,12.0,0.,12.0